Hauptseite
METAR-TAF:

METAR-TAF

Flughäfen :

Elsenborn

Bütgenbach, Belgien

Breite: 50-28N, Länge: 006-11E, Höhe: 564 m

Beobachtung

Neuester Wetterbericht von vor 10 Minuten, um 10:55 UTC
Wind 3 kt aus Nord/Nordost
Temperatur 23°C
Luftfeuchtigkeit 44%
Luftdruck 1020 hPa
Sichtweite 10 km oder mehr

METAR: EBLB 191055Z AUTO 02003KT 9999 BKN058/// 23/10 Q1020 BLU

Zeit: 13:05 (11:05 UTC)


TAF: fehlend

Wetterbeobachtungen und Prognosen von mehr als 4000 Flughäfen (METAR und TAF Bericht).

Die verfügbaren Stationen werden durch gelbe und rote Markierungen auf der Karte dargestellt.

Führen Sie die Maus auf sie, um den Namen der Station zu sehen.

Darauf klicken, um die Beobachtung von Wetterbeobachtungen und Prognosen zu sehen.

Um die Karte zu ändern : klicken Sie auf den grünen Tasten mit einem schwarzen Kreuz Zum Vergrößern, auf den grünen Button mit einem Gedankenstrich zu verkleinern, oder auf die grünen Pfeile für benachbarte Karten.


METAR-TAF: